Weather in Zhodishki

Belarus     54°37′28″N   26°26′34″E
В апреле 2022 года жителям России запретили посещать сайт meteo.paraplan.net по решению Генеральной прокуратуры. Аудитория сайта уменьшилась в 10 раз. Владельцы сайта не видят смысла в поддержке погодного сервера в таких условиях. Сайт будет закрыт в октябре.
temp.,
°C
wind,
m/s
gust,
m/s
humid.,
%
clouds,
%
prec.,
mm/h
press.,
hPa
HPBL,
m
30 september, fri
fri3000:00+6wsw22896 0.0 100826
03:00+5sw22915 0.0 101019
06:00+5sw22925 0.0 101125
09:00+7sw23775 0.0 1012110
12:00+12w235834 0.0 1014790
15:00+14wsw2253100 0.0 10141184
18:00+12sw116799 0.0 101410
21:00+9se1173100 0.0 101510
1 october, sat
sat100:00+9e2273100 0.0 101517
03:00+8se2494100 0.8 1015137
06:00+8e3697100 2.2 1014260
09:00+8nnw1297100 8.8 1013156
12:00+8nw2497100 1.2 1013296
15:00+8nw3592100 4.8 1013435
18:00+8wsw1294100 0.3 1013118
21:00+8sw239535 0.3 101260
2 october, sun
sun200:00+6sw119475 0.0 101210
03:00+6sse2294100 0.0 101121
06:00+6se2294100 0.0 101041
09:00+7se249099 0.0 1010146
12:00+10se2379100 0.0 1009440
15:00+11se2277100 0.1 1008543
18:00+9se1192100 1.1 100824
21:00+8ese119293 1.9 100915
3 october, mon
mon300:00+7nw229359 0.0 100928
03:00+6nw229679 0.0 100931
06:00+7wnw2496100 0.1 1008120
09:00+8wnw2496100 0.2 1008187
12:00+10wnw3686100 0.0 1008556
15:00+10wnw378915 0.6 1007367
18:00+10w358317 0.5 1006120
21:00+9w2692100 0.8 1005141
4 october, tue
tue400:00+8w3896100 0.9 1005306
03:00+8wnw4895100 1.1 1005400
06:00+7nw3896100 0.0 1006436
09:00+8wnw3696100 0.1 1008353
12:00+9wnw3483100 0.0 1009611
15:00+11wnw3567100 0.1 10101120
18:00+10w3679100 0.1 1011243
21:00+8wsw3993100 0.1 1013229